www.pogodaiklimat.ru

Погода и климат >> Архив погоды >> Индонезия >> Намлеа


ПОГОДА в Намлеа

  • Прогноз погоды в Намлеа
  • Монитор погоды в Намлеа

АРХИВ ПОГОДЫ в Намлеа

Время (UTC), дата Ветер
(напр.,м/с)
 
Видим.   Явления Облачность Т
(С)
Тd
(С)
f
(%)
Тe
(С)
Тes
(С)
Комфортность P
(гПа)
Po
(гПа)
Тmin
(С)
Tmax
(С)
R
(мм)
R24
(мм)
S
(см)
15 13.06 Ю 2 10 км 9/3 540 м
[Cu med, cong Ac trans Ci fib]
+26.4 +24.6 90 +37 +37 очень
душно
1009.9 1008.3
18 13.06 ЮВ 3 7000 м осадки на расстоянии 9/4 500 м
[Cu Sc Ac As Ci sp]
+26.2 +23.8 87 +36 +36 очень
душно
1008.2 1006.7
21 13.06 ЮВ 2 8000 м 9/4 540 м
[Cu Sc Ac As Ci sp]
+26.0 +24.2 90 +36 +36 очень
душно
1008.2 1006.7
00 14.06 Ю 6 11 км 4/3 540 м
[Cu med, cong Ac trans Ci fib]
+28.2 +24.3 79 +39 +41 очень
душно
1009.9 1008.4 +24.0 0.0
03 14.06 ЮВ 4 11 км 4/3 540 м
[Cu med, cong Ac trans Ci fib]
+30.7 +24.5 70 +43 +51 опасность
перегрева
1008.6 1007.1
06 14.06 ЮВ 7 8000 м 5/4 540 м
[Cu Sc Ac trans Ci sp]
+29.1 +24.9 78 +42 +43 опасность
перегрева
1006.2 1004.7
09 14.06 Ю 4 9000 м 8/3 540 м
[Cu Sc Ac As Ci sp]
+27.5 +24.4 83 +39 +39 очень
душно
1006.7 1005.1
12 14.06 ЮВ 4 <100 м 4/3 500 м
[Cu med, cong Ac trans Ci fib]
+26.0 +23.9 88 +36 +36 очень
душно
1008.9 1007.3 +31.2
15 14.06 Ю 2 10 км 4/3 500 м
[Cu med, cong Ac trans Ci fib]
+25.6 +23.8 90 +35 +35 очень
душно
1009.2 1007.6
18 14.06 Ю 2 10 км 4/3 500 м
[Cu med, cong Ac trans Ci fib]
+25.2 +23.7 91 +34 +34 очень
душно
1008.0 1006.8
21 14.06 Ю 5 10 км 4/3 500 м
[Cu med, cong Ac trans Ci fib]
+25.2 +23.4 90 +34 +34 очень
душно
1008.5 1006.9
00 15.06 ЮВ 6 10 км 5/4 500 м
[Cu med, cong Ac trans Ci fib]
+27.8 +24.1 80 +39 +40 очень
душно
1010.5 1009.0 +24.4
03 15.06 ЮВ 6 10 км 5/3 540 м
[Cu med, cong Ac trans Ci fib]
+29.6 +23.6 70 +40 +44 очень
душно
1009.8 1008.3
06 15.06 ЮВ 6 10 км 5/3 540 м
[Cu med, cong Ac trans Ci fib]
+29.8 +24.2 72 +42 +44 опасность
перегрева
1007.4 1005.9
09 15.06 ЮВ 5 10 км 8/3 570 м
[Cu med, cong Ac trans Ci sp]
+27.3 +24.2 83 +38 +38 очень
душно
1008.2 1006.7
12 15.06 ЮВ 4 9000 м 9/3 500 м
[Cu med, cong Ac As Ci sp]
+26.1 +23.5 86 +35 +35 очень
душно
1010.7 1009.1 +30.2
15 15.06 ЮЗ 2 9000 м 8/3 500 м
[Cu med, cong Ac trans Ci sp]
+25.1 +23.6 91 +34 +34 очень
душно
1010.9 1009.4
18 15.06 Ю 2 9000 м 9/3 500 м
[Cu med, cong Ac As Ci sp]
+25.2 +23.7 91 +34 +34 очень
душно
1009.7 1008.2
21 15.06 ЮЗ 2 9000 м 9/4 500 м
[Cu Sc Ac As Ci sp]
+24.5 +23.4 94 +33 +33 очень
душно
1009.7 1008.2
00 16.06 штиль 0 10 км 9/3 540 м
[Cu med, cong Ac As Ci sp]
+26.2 +23.7 86 +36 +39 очень
душно
1011.2 1009.7 +24.6
03 16.06 В 3 10 км 8/3 540 м
[Cu med, cong Ac As Ci sp]
+29.7 +24.8 75 +42 +49 опасность
перегрева
1010.5 1009.0
06 16.06 ЮВ 5 10 км 8/3 540 м
[Cu med, cong Ac trans Ci fib]
+29.2 +24.4 75 +41 +44 опасность
перегрева
1007.7 1006.1
09 16.06 В 4 10 км 8/3 500 м
[Cu med, cong Ac As Ci fib]
+27.6 +23.3 77 +37 +37 очень
душно
1008.0 1006.5
12 16.06 Ю 3 10 км 9/3 500 м
[Cu med, cong Ac trans Ci fib]
+25.9 +23.2 85 +35 +35 очень
душно
1010.3 1008.7 +30.0
15 16.06 Ю 2 10 км 9/3 500 м
[Cu med, cong Ac trans Ci fib]
+26.0 +23.5 86 +35 +35 очень
душно
1010.7 1009.1
18 16.06 штиль 0 10 км 9/3 500 м
[Cu med, cong Ac trans Ci fib]
+24.6 +22.9 90 +33 +33 очень
душно
1009.8 1008.2
21 16.06 ЮЗ 2 10 км 10/3 500 м
[Cu med, cong Ac trans Ci fib]
+24.6 +23.0 91 +33 +33 очень
душно
1009.7 1008.2
00 17.06 В 5 10 км 8/3 500 м
[Cu med, cong Ac trans Ci sp]
+27.2 +24.0 83 +38 +39 очень
душно
1011.3 1009.8 +24.0
03 17.06 ЮВ 5 10 км 6/3 540 м
[Cu med, cong Ac trans Ci sp]
+28.6 +24.2 77 +40 +45 очень
душно
1010.8 1009.3
06 17.06 ЮВ 6 8000 м осадки на расстоянии 8/5 540 м
[Frnb Ac trans Ci sp]
+27.9 +24.1 80 +39 +41 очень
душно
1008.8 1007.3
09 17.06 ЮВ 7 8000 м 9/4 540 м
[Cu Sc Ac As Ci sp]
+26.4 +21.9 76 +34 +34 очень
душно
1009.6 1008.0
12 17.06 Ю 2 9000 м 9/4 540 м
[Cu Sc Ac As Ci sp]
+26.0 +21.8 78 +33 +33 очень
душно
1011.2 1009.7 +29.9
15 17.06 Ю 3 9000 м 8/3 540 м
[Cu med, cong Ac trans Ci sp]
+24.8 +23.5 92 +33 +33 очень
душно
1011.0 1009.4
18 17.06 ЮЗ 2 9000 м 8/3 540 м
[Cu med, cong Ac trans Ci sp]
+23.3 +21.8 91 +32 +32 очень
душно
1010.0 1008.5
21 17.06 Ю 2 9000 м 9/3 540 м
[Cu med, cong Ac trans Ci sp]
+24.2 +22.3 89 +31 +31 очень
душно
1010.5 1008.9
00 18.06 Ю 3 10 км 8/3 500 м
[Cu med, cong Ac trans Ci sp]
+27.0 +22.8 78 +36 +38 очень
душно
1011.0 1009.5 +24.0
03 18.06 ЮВ 5 10 км 8/3 500 м
[Cu med, cong Ac trans Ci sp]
+29.1 +23.7 73 +40 +44 очень
душно
1009.6 1008.1
06 18.06 ЮВ 6 9000 м 9/4 540 м
[Cu med, cong Ac As Ci sp]
+28.6 +23.8 75 +39 +41 очень
душно
1008.0 1006.4
09 18.06 ЮВ 5 8000 м осадки на расстоянии 9/5 540 м
[Cu Sc Ac As Ci sp]
+26.2 +21.3 74 +33 +33 очень
душно
1008.8 1007.2
12 18.06 Ю 3 9000 м 9/5 500 м
[Cu Sc Ac As Ci sp]
+26.0 +22.2 80 +34 +34 очень
душно
1010.4 1008.8 +29.8
15 18.06 Ю 3 9000 м 6/3 500 м
[Cu med, cong Ac trans Ci sp]
+25.4 +22.1 82 +33 +33 очень
душно
1010.2 1008.6
18 18.06 ЮЗ 3 9000 м 6/3 500 м
[Cu med, cong Ac trans Ci sp]
+24.4 +21.9 86 +31 +31 очень
душно
1009.4 1007.9
21 18.06 Ю 2 9000 м 5/3 500 м
[Cu med, cong Ac trans Ci fib]
+24.0 +22.1 89 +31 +31 очень
душно
1009.3 1007.7
00 19.06 Ю 4 10 км 6/5 500 м
[Cu med, cong Ac trans Ci fib]
+27.3 +23.0 77 +36 +39 очень
душно
1010.2 1008.6 +24.0
03 19.06 ЮВ 6 10 км 6/5 500 м
[Cu med, cong Ac trans Ci fib]
+28.1 +23.4 76 +38 +41 очень
душно
1009.5 1008.0
06 19.06 ЮВ 6 10 км 8/5 500 м
[Cu med, cong Ac trans Ci fib]
+28.1 +22.5 72 +37 +39 очень
душно
1007.9 1006.4
09 19.06 ЮВ 6 10 км 3/3 500 м
[Cu med, cong Ac trans]
+27.6 +21.6 70 +35 +35 очень
душно
1007.8 1006.2
12 19.06 ЮВ 3 10 км 5/3 500 м
[Cu med, cong Ac trans Ci fib]
+26.0 +22.2 80 +34 +34 очень
душно
1009.7 1008.2 +29.0
15 19.06 Ю 2 10 км 3/3 450 м
[Cu med, cong]
+23.8 +21.8 89 +31 +31 очень
душно
1009.8 1008.3
18 19.06 Ю 2 10 км 4/3 480 м
[Cu med, cong Ci fib]
+23.4 +21.8 91 +32 +32 очень
душно
1008.6 1007.0
21 19.06 ЮЗ 2 10 км 3/3 450 м
[Cu med, cong]
+23.0 +21.7 92 +31 +31 очень
душно
1008.8 1007.2
00 20.06 ЮЗ 2 9000 м 5/3 500 м
[Cu med, cong Ac trans Ci sp]
+26.7 +22.7 79 +35 +39 очень
душно
1010.6 1009.0 +22.8
03 20.06 ЮВ 5 10 км 4/3 500 м
[Cu med, cong Ac trans Ci fib]
+30.3 +23.6 67 +41 +47 опасность
перегрева
1009.9 1008.4
06 20.06 ЮВ 5 10 км 5/3 540 м
[Cu med, cong Ac trans Ci sp]
+29.4 +23.1 69 +39 +43 очень
душно
1008.0 1006.5
09 20.06 Ю 3 10 км 4/3 540 м
[Cu med, cong Ac trans Ci fib]
+27.6 +22.9 76 +37 +37 очень
душно
1008.4 1006.8
12 20.06 штиль 0 10 км 3/3 480 м
[Cu med, cong]
+25.4 +22.4 83 +33 +33 очень
душно
1010.7 1009.2 +31.1

 

Местоположение метеостанции Намлеа (Индонезия): широта -3.25 долгота 127.08 высота над уровнем моря 20 м.

В архиве по умолчанию представлена погода в Намлеа за последнюю неделю. Архивные данные за месяц целиком и за предыдущие месяцы, начиная с января 2011 года, Вы можете получить, выбрав интересующий диапазон дат из раскрывающегося списка и нажав кнопку "Ввод!".


*Определитесь, кто Вы:
робот инопланетянин человек

Внимание! Время в таблицах - всемирное. Для получения местного времени необходимо прибавить поправку, которая равна 9 ч.

Смотрите также архив погоды в соседних городах и на ближайших метеорологических станциях:

Погода в Амбоне (Индонезия) (122 км)
Погода на Санане (Индонезия) (177 км)
Погода в Тауне (Индонезия) (182 км)
Погода в Амахаи (Индонезия) (200 км)
Погода в Лабухе (Индонезия) (295 км)
Погода в Неира (Индонезия) (344 км)
Погода в Гесере (Индонезия) (421 км)
Погода в Тернате (Индонезия) (448 км)
Погода в Аэропорту Соронг-Джефман (Индонезия) (517 км)
Погода в Кендари (Индонезия) (525 км)

Пояснения к столбцам:

Ветер - указаны скорость ветра в м/с - средняя за 10 мин, порывы в срок и между сроками (в фигурных скобках) и направление, откуда дует ветер: С - северный, СВ - северо-восточный, В - восточный, ЮВ - юго-восточный, Ю - южный, ЮЗ - юго-западный, З - западный, СЗ - северо-западный.
Видимость - горизонтальная дальность видимости в метрах или километрах. При видимости от 1 до 10 км при отсутствии осадков обычно наблюдается дымка, при ухудшении видимости до 1 км и менее - туман. В сухую погоду видимость может ухудшаться дымом, пылью или мглою.
Явления - указаны атмосферные явления, наблюдавшиеся в срок или в последний час перед сроком; фигурными скобками обозначены явления, наблюдавшиеся между сроками (за 1-3 часа до срока); квадратными скобками обозначены град или гололедные отложения с указанием их диаметра в мм.
Облачность - указаны через наклонную черту общая и нижняя облачность в баллах и высота нижней границы облаков в метрах; квадратными скобками обозначены формы облаков: Ci - перистые, Cs - перисто-слоистые, Cc - перисто-кучевые, Ac - высококучевые, As - высокослоистые, Sc - слоисто-кучевые, Ns - слоисто-дождевые, Cu - кучевые, Cb - кучево-дождевые. Подробнее классификацию облаков см. в Атласе облаков (PDF).
T - Температура воздуха - температура, измеренная на высоте 2 м над землей.
Td - Температура точки росы - температура, при понижении до которой содержащийся в воздухе водяной пар достигнет насыщения.
f - Относительная влажность воздуха - влажноcть воздуха, измеренная на высоте 2 м над землей.
Te - Эффективная температура - температура, которую ощущает одетый по сезону человек в тени. Характеристика душности погоды. При расчете учитывается влияние влажности воздуха и скорости ветра на теплоощущения человека.
Tes - Эффективная температура на солнце - температура, которую ощущает человек, с поправкой на солнечный нагрев. Характеристика знойности погоды. Зависит от высоты солнца над горизонтом, облачности и скорости ветра. Ночью, в пасмурную погоду, а также при ветре 12 м/с и более поправка равна нулю.
P - Атмосферное давление - приведенное к уровню моря атмосферное давление.
Po - Атмосферное давление - измеренное на уровне метеостанции атмосферное давление.
Tmin - Минимальная температура - минимум температуры воздуха на высоте 2 м над землей.
Tmax - Максимальная температура - максимум температуры воздуха на высоте 2 м над землей.
R - Количество осадков - Количество выпавших осадков за период времени, мм. При наведении курсора мыши на число - период времени, за который выпало указанное количество осадков.
R24 - Количество осадков - Количество выпавших осадков за 24 часа, мм.
S - Снежный покров - Высота снежного покрова, см. При наведении курсора мыши на число - состояние снежного покрова и степень покрытия местности в баллах.